This is the latest recevied weather packets stored in our database for station/object KD8OZS. If no packets are shown the sender has not sent any weather packets the latest 10 day(s).
| Time | Temp. | Humidity | Pressure | Rain* | Wind** | Luminosity | Snow |
|---|---|---|---|---|---|---|---|
| 1787674181 | 23.33° C | 64% | 1013.3 hPa | 0 mm | - | 102 W/m² | - |
| 1787673875 | 23.33° C | 66% | 1013.2 hPa | 0 mm | - | 69 W/m² | - |
| 1787673571 | 23.33° C | 66% | 1013.3 hPa | 0 mm | - | 118 W/m² | - |
| 1787673265 | 22.78° C | 71% | 1013.2 hPa | 0 mm | - | 71 W/m² | - |
| 1787672964 | 22.22° C | 68% | 1013.2 hPa | 0 mm | - | 241 W/m² | - |
| 1787672660 | 22.78° C | 67% | 1013.3 hPa | 0 mm | - | 139 W/m² | - |
| 1787672360 | 22.78° C | 67% | 1013.4 hPa | 0 mm | - | 102 W/m² | - |
| 1787672054 | 23.33° C | 67% | 1013.3 hPa | 0 mm | - | 101 W/m² | - |
| 1787671754 | 22.78° C | 68% | 1013.2 hPa | 0 mm | - | 238 W/m² | - |
| 1787671454 | 22.78° C | 71% | 1013.2 hPa | 0 mm | - | 186 W/m² | - |
| 1787671149 | 22.78° C | 72% | 1013.2 hPa | 0 mm | - | 140 W/m² | - |
| 1787670845 | 22.78° C | 72% | 1013.5 hPa | 0 mm | - | 128 W/m² | - |
| 1787670540 | 22.78° C | 75% | 1013.3 hPa | 0 mm | - | 408 W/m² | - |
| 1787670235 | 22.78° C | 72% | 1013.2 hPa | 0 mm | - | 177 W/m² | - |
| 1787669934 | 22.78° C | 72% | 1013.1 hPa | 0 mm | - | 67 W/m² | - |
| 1787669630 | 22.22° C | 77% | 1013.1 hPa | 0 mm | - | 62 W/m² | - |
| 1787669330 | 22.22° C | 75% | 1013.2 hPa | 0 mm | - | 124 W/m² | - |
| 1787669025 | 22.22° C | 77% | 1013 hPa | 0 mm | - | 69 W/m² | - |
| 1787668722 | 21.67° C | 79% | 1013 hPa | 0 mm | - | 448 W/m² | - |
| 1787668418 | 21.67° C | 78% | 1012.9 hPa | 0 mm | - | 541 W/m² | - |
| 1787668112 | 21.67° C | 79% | 1012.9 hPa | 0 mm | - | 553 W/m² | - |
| 1787667807 | 21.67° C | 79% | 1013 hPa | 0 mm | - | 88 W/m² | - |
| 1787667503 | 22.22° C | 79% | 1013.1 hPa | 0 mm | - | 496 W/m² | - |
| 1787667199 | 21.67° C | 81% | 1013 hPa | 0 mm | - | 584 W/m² | - |
| 1787666893 | 21.67° C | 80% | 1013.1 hPa | 0 mm | - | 596 W/m² | - |
* Rain latest hour (hover to see other rain measurements)
** Current wind speed in m/s (hover to see current wind gust speed)